HEAD-4 (45624 NORAD) Tracking and Keplerian Element Data

This shows tracking and keplerian element data for the satellite.

Feedback or suggestion? Click here.




ElementValue
Catalog45624
NameHEAD-4
Epoch Orbit503
Epoch Day185.44832966
Epoch Year2020
RAAN330.0541
Inclination97.2897
Eccentricity0.0014246
Argument of Perigee156.0682
Mean Anonmoly276.8699
Mean Motion15.24281025
Decay Rate7.17E-06
L11 45624U 20034A 20185.44832966 .00000717 00000-0 32124-4 0 9999
L22 45624 97.2897 330.0541 0014246 156.0682 276.8699 15.24281025 5031

Live tracking and technical data element details for HEAD-4 (NORAD 45624). HEAD-4 can be tracked NOW for your location showing map with azimuth and elevation plus other details from your city location.

Track the satellite on the map from your city or location and see movement details for azimuth, elevation, latitude, longitude, range, height, and movement on the map or in text.







IsCatalogInMostPopularTable: catalog: 45624, numindb: 3
Update: records affected: 1



GetName: 45624 HEAD-4

Hit Count: updated at: Sat, 04 Jul 2020 03:24:01 GMT